Location: Atherton
(17.2661°S, 145.4859°E)
Time: 23:29:07
(UTC+10:00)

Hubble Space Telescope - Pass Details

Date: 26 May 2025
Orbit: 488 x 491 km, 28.5° (Epoch: 15 June)

Event Time Altitude Azimuth Distance (km) Brightness Sun altitude
Rises 19:04:02 0° 252° (WSW) 2,560 5.2 -17.2°
Reaches altitude 10° 19:06:18 10° 258° (WSW) 1,677 4.2 -17.7°
Maximum altitude 19:10:02 48° 332° (NNW) 649 1.4 -18.6°
Enters shadow 19:12:11 22° 37° (NE) 1,102 2.1 -19.1°
